TimeCST,TemperatureF,Dew PointF,Humidity,Sea Level PressureIn,VisibilityMPH,Wind Direction,Wind SpeedMPH,Gust SpeedMPH,PrecipitationIn,Events,Conditions,WindDirDegrees,DateUTC
12:56 AM,61.9,48.9,62,29.94,10.0,South,20.7,27.6,N/A,,Clear,170,2013-03-04 06:56:00
1:56 AM,61.0,48.9,64,29.91,10.0,South,17.3,-,N/A,,Clear,170,2013-03-04 07:56:00
2:56 AM,59.9,50.0,70,29.88,10.0,South,19.6,-,N/A,,Clear,170,2013-03-04 08:56:00
3:56 AM,59.0,50.0,72,29.87,10.0,South,17.3,-,N/A,,Clear,170,2013-03-04 09:56:00
4:56 AM,57.9,50.0,75,29.86,10.0,South,15.0,-,N/A,,Clear,170,2013-03-04 10:56:00
5:56 AM,57.2,50.0,77,29.90,10.0,SSE,12.7,-,N/A,,Clear,160,2013-03-04 11:56:00
6:56 AM,56.8,50.0,78,29.88,10.0,South,9.2,-,N/A,,Clear,170,2013-03-04 12:56:00
7:56 AM,57.9,50.0,75,29.89,10.0,SSE,11.5,-,N/A,,Clear,160,2013-03-04 13:56:00
8:56 AM,63.0,50.0,63,29.90,10.0,South,12.7,-,N/A,,Clear,170,2013-03-04 14:56:00
9:56 AM,68.9,48.9,49,29.89,10.0,South,11.5,-,N/A,,Clear,190,2013-03-04 15:56:00
10:56 AM,75.9,46.9,36,29.88,10.0,South,10.4,-,N/A,,Clear,190,2013-03-04 16:56:00
11:56 AM,81.9,45.9,28,29.84,10.0,South,10.4,-,N/A,,Clear,170,2013-03-04 17:56:00
12:56 PM,86.9,43.9,22,29.81,10.0,Variable,6.9,-,N/A,,Clear,0,2013-03-04 18:56:00
1:56 PM,90.9,36.0,14,29.78,10.0,SW,6.9,-,N/A,,Clear,230,2013-03-04 19:56:00
2:56 PM,92.8,32.0,12,29.75,10.0,SW,6.9,-,N/A,,Clear,220,2013-03-04 20:56:00
3:56 PM,93.9,34.9,13,29.73,10.0,WSW,3.5,-,N/A,,Clear,240,2013-03-04 21:56:00
4:56 PM,91.9,30.0,11,29.71,10.0,South,6.9,-,N/A,,Clear,180,2013-03-04 22:56:00
5:56 PM,91.9,26.1,9,29.71,10.0,SE,5.8,-,N/A,,Clear,130,2013-03-04 23:56:00
6:56 PM,86.0,31.1,14,29.71,10.0,SE,5.8,-,N/A,,Clear,140,2013-03-05 00:56:00
7:56 PM,79.9,32.0,18,29.73,10.0,SE,3.5,-,N/A,,Clear,140,2013-03-05 01:56:00
8:56 PM,77.9,30.0,17,29.75,10.0,SE,10.4,-,N/A,,Clear,140,2013-03-05 02:56:00
9:56 PM,75.9,46.9,36,29.77,10.0,SSE,11.5,-,N/A,,Clear,150,2013-03-05 03:56:00
10:56 PM,73.9,54.0,50,29.77,9.0,SSE,13.8,-,N/A,,Clear,160,2013-03-05 04:56:00
11:56 PM,71.6,55.4,57,29.79,9.0,SSE,15.0,-,N/A,,Clear,160,2013-03-05 05:56:00